Location: Keeler Census Designated Place
(36.4846°N, 117.8720°W)
Time: 23:56:25
(UTC+00:00)

Daily predictions for brighter satellites

Satellite Brightness Start Highest point End
(mag) Time Altitude Azimuth Time Altitude Azimuth Time Altitude Azimuth
ACS3 Solar Sail 3.7 12:09:36 10° N 12:10:37 15° NNW 12:10:37 15° NNW
BlueWalker 3 4.4 12:15:37 13° NNE 12:15:48 13° NNE 12:17:38 10° ENE
NOSS 3-1 (C) 3.1 12:21:05 50° NNW 12:21:05 50° NNW 12:25:25 10° NNE
Cosmos 2278 Rocket 4.4 12:16:05 10° N 12:20:26 22° ENE 12:24:44 10° ESE
Cosmos 2237 Rocket 3.9 12:15:47 10° SSE 12:20:47 33° ESE 12:25:48 10° NE
Cosmos 1733 Rocket 4.4 12:25:33 26° S 12:25:33 26° S 12:27:29 10° S
Meteor 1-24 Rocket 4.3 12:21:28 10° S 12:27:12 59° E 12:32:47 10° NNE
SL-16 R/B 4.1 12:22:19 10° SSW 12:24:12 19° SSW 12:24:12 19° SSW
Meteor 2-14 Rocket 4.3 12:25:53 10° SSW 12:31:56 65° W 12:38:00 10° N
Meteor 2-5 Rocket 4.3 12:29:28 10° S 12:35:19 64° E 12:41:09 10° NNE
UNK 4.0 12:31:12 10° S 12:34:46 45° SW 12:34:46 45° SW
Gbstr 26 Del rocket 3.9 12:40:41 37° NW 12:41:11 38° NNW 12:46:26 10° NE
Cosmos 1340 Rocket 2.8 12:52:02 47° W 12:52:02 47° W 12:55:37 10° S
Orbus 7S? 4.1 12:43:11 10° SW 12:52:03 79° NW 12:55:56 10° NE
COSMO-SKYMED 1 4.2 12:48:33 10° SE 12:52:15 33° ENE 12:55:57 10° N
Cosmos 2100 Rocket 3.9 12:47:17 10° N 12:53:24 71° W 12:59:31 10° S
USA 59 Rocket 1.8 12:59:00 11° N 12:59:00 11° N 12:59:11 10° N
NOAA 12 4.2 12:53:59 10° NNE 12:59:19 83° ESE 13:04:38 10° SSW
Cosmos 1943 Rocket 3.1 12:55:19 10° N 13:00:39 48° ENE 13:05:56 10° SE
NOSS 3-1 (A) 2.7 12:59:39 11° SW 13:03:54 67° NW 13:09:07 10° NNE
Cosmos 1703 Rocket 3.5 12:59:46 10° SSW 13:04:02 61° W 13:08:22 10° N
NOSS 0 Rocket 3.9 12:59:00 10° SSW 13:05:05 65° WNW 13:11:12 10° NNE
USA 276 3.8 13:06:09 15° N 13:07:19 20° NNE 13:09:30 10° E
CZ-4 R/B 3.8 13:04:25 10° N 13:09:15 66° WNW 13:13:59 10° SSW
Cosmos 921 Rocket 3.7 13:09:58 20° NW 13:12:19 32° W 13:16:16 10° SSW
Cosmos 1864 Rocket 4.5 13:10:06 10° NNW 13:16:21 71° W 13:22:37 10° S
Cosmos 1459 Rocket 4.2 13:10:26 10° NNW 13:16:34 51° W 13:22:37 10° SSW
Cosmos 2219 Rocket 4.1 13:21:12 10° NW 13:21:12 10° NW 13:21:32 10° NW
Cosmos 44 Rocket 3.4 13:18:01 10° NNW 13:23:10 86° WSW 13:28:20 10° SSE
Cosmos 1140 Rocket 3.5 13:18:10 10° NNW 13:23:11 57° WSW 13:28:10 10° S
Cosmos 1725 Rocket 4.0 13:19:12 10° NNW 13:25:27 66° W 13:31:40 10° S
COSMOS 2428 3.6 13:22:33 10° WSW 13:27:13 26° WNW 13:31:56 10° N
Cosmos 1484 Rocket 2.8 13:23:55 10° NNE 13:27:28 73° ESE 13:30:58 10° S
CZ-2C R/B 4.3 13:27:31 10° NW 13:28:40 12° NW 13:28:40 12° NW
Cosmos 1782 Rocket 3.5 13:26:44 10° N 13:31:09 88° W 13:35:29 10° S
Cosmos 1802 Rocket 4.2 13:25:54 10° NNW 13:32:01 51° W 13:38:02 10° SSW
USA 234 3.7 13:27:09 10° SSE 13:33:20 44° SW 13:39:34 10° WNW
CBERS-1 4.5 13:31:24 10° NNE 13:36:30 67° ESE 13:41:33 10° S
Cosmos 2233 Rocket 4.0 13:31:14 10° N 13:37:33 79° W 13:43:47 10° S
Iridium 4 Rocket 3.4 13:35:07 10° NNW 13:39:06 39° W 13:42:56 10° SSW
IRS-1D 4.2 13:35:19 10° N 13:39:36 30° WNW 13:43:50 10° SW
Cosmos 2056 Rocket 4.1 13:34:24 10° S 13:39:44 67° ESE 13:45:06 10° NNE
Cosmos 1980 4.2 13:43:06 10° SW 13:48:19 38° WNW 13:53:35 10° N
Cosmos 1300 Rocket 3.9 13:48:39 10° NNW 13:52:43 41° W 13:56:45 10° SSW
Helios 1A Rocket 3.6 13:50:11 10° SSW 13:52:59 24° W 13:55:49 10° NW
BlueWalker 3 1.8 13:50:15 10° NW 13:53:52 81° NE 13:57:28 10° SE
